User: anonymous   Login
Location: Unspecified
(0.0000°N, 0.0000°E)
Time: 01:51:08
(UTC+00:00)
Language:

ONEWEB-0118 - Orbit

View from above orbital plane
View from above orbital plane
View from above satellite
View from above satellite

Ground track
Ground track

The orbit is defined by the following mean orbital elements,

1 47264U          26145.53725110 +.00000000 +00000-0 -10281-2 0 00003
2 47264  87.8959 355.1568 0001926  95.8562 264.2786 13.12441800    06
Epoch (UTC): 25 May 2026 12:53:38
Eccentricity: 0.0001926
inclination: 87.8959°
perigee height: 1212 km
apogee height: 1215 km
right ascension of ascending node: 355.1568°
argument of perigee: 95.8562°
revolutions per day: 13.12441800
mean anomaly at epoch: 264.2786°

The dashed part of the orbit path shows where the satellite is in the earth's shadow,  

DLR